Location: Newark
(43.4306°N, 0.3089°E)
Time: 12:38:48
(UTC+00:00)

Vanguard 3 - Pass Details

Date: 29 August 2019
Orbit: 508 x 3262 km, 33.3° (Epoch: 23 October)

Event Time Altitude Azimuth Distance (km) Brightness Sun altitude
Rises 16:33:33 0° 254° (WSW) 5,672 12.9 22.0°
Reaches altitude 10° 16:38:13 10° 248° (WSW) 4,186 12.6 21.1°
Maximum altitude 16:47:27 39° 185° (S) 1,716 9.1 19.5°
Drops below altitude 10° 16:52:59 10° 117° (ESE) 2,501 9.2 18.5°
Sets 16:55:07 0° 109° (ESE) 3,208 9.7 18.1°
